Location: Molino di Ancona
(43.6167°N, 13.3667°E)
Time: 11:41:34
(UTC+00:00)

Cosmos 1844 Rocket - Pass Details

Date: 15 December 2019
Orbit: 825 x 844 km, 71.0° (Epoch: 25 January)

Event Time Altitude Azimuth Distance (km) Brightness Sun altitude
Rises 05:47:30 0° 235° (SW) 3,358 5.5 -8.0°
Reaches altitude 10° 05:50:13 10° 246° (WSW) 2,426 4.7 -7.6°
Maximum altitude 05:55:03 30° 306° (NW) 1,450 3.4 -6.8°
Drops below altitude 10° 05:59:55 10° 7° (N) 2,435 4.9 -6.0°
Sets 06:02:40 0° 18° (NNE) 3,372 5.7 -5.5°
